Home   Weather   Ulaanbaatar   Past weeks
Flag for Mongolia

Past Weather in Ulaanbaatar, Mongolia — Yesterday and Last 2 Weeks

Now
32 °F

Sunny.


Feels Like: 26 °F
Forecast: 50 / 15 °F
Wind: 6 mph from South

Location: Ulan-Bator

Current Time: Oct 15, 2019 at 7:24:32 pm

Latest Report: Oct 15, 2019 at 6:30 pm


Visibility: 10 mi

Pressure: 30.33 "Hg (25.78 "Hg at 1298m altitude)

Humidity: 32%

Dew Point: 5 °F

Location of UlaanbaatarLocation

Past Weather in Ulaanbaatar — Graph

°F

Ulaanbaatar Temperature Yesterday

Maximum temperature yesterday: 46 °F (at 3:00 pm)
Minimum temperature yesterday: 1 °F (at 7:30 am)
Average temperature yesterday: 24 °F

High & Low Weather Summary for the Past Weeks

 TemperatureHumidityPressure
High72 °F (Sep 30, 6:00 pm)93% (Oct 2, 9:30 am)30.60 "Hg (Oct 2, 9:30 am)
Low1 °F (Oct 13, 5:00 am)12% (Oct 15, 3:30 pm)29.62 "Hg (Sep 30, 6:00 pm)
Average32 °F57%30.26 "Hg
* Reported Sep 30 6:00 pm — Oct 15 6:00 pm, Ulaanbaatar. Weather by CustomWeather, © 2019

Note: Actual official high and low records may vary slightly from our data, if they occured in-between our weather recording intervals... More about our weather records

Advertising

Ulaanbaatar Weather History for the Previous 24 Hours

Scroll right to see more
 ConditionsComfort  
Time TempWeatherWind HumidityBarometerVisibility
6:00 pm
Tue, Oct 15
39 °FSunny.3 mph22%30.30 "Hg10 mi
5:30 pm48 °FSunny.3 mph15%30.30 "Hg10 mi
5:00 pm50 °FSunny.6 mph13%30.33 "Hg10 mi
4:30 pm52 °FSunny.6 mph12%30.33 "Hg10 mi
4:00 pm52 °FSunny.8 mph12%30.33 "Hg10 mi
3:30 pm52 °FSunny.8 mph12%30.33 "Hg10 mi
3:00 pm50 °FSunny.8 mph13%30.33 "Hg10 mi
2:30 pm50 °FSunny.6 mph14%30.33 "Hg10 mi
2:00 pm48 °FSunny.1 mph17%30.36 "Hg10 mi
1:30 pm48 °FSunny.1 mph18%30.36 "Hg10 mi
1:00 pm45 °FSunny.1 mph21%30.39 "Hg10 mi
12:30 pm43 °FSunny.1 mph22%30.39 "Hg10 mi
12:00 pm41 °FSunny.1 mph24%30.42 "Hg10 mi
11:30 am36 °FClear.1 mph30%30.42 "Hg5 mi
11:00 am32 °FClear.1 mph34%30.42 "Hg5 mi
10:30 am30 °FClear.1 mph40%30.45 "Hg5 mi
10:00 am27 °FClear.No wind43%30.45 "Hg5 mi
9:30 am23 °FClear.No wind54%30.45 "Hg5 mi
9:00 am21 °FSunny.No wind58%30.45 "Hg10 mi
8:30 am16 °FSunny.No wind67%30.45 "Hg10 mi
8:00 am7 °FClear.1 mph78%30.45 "Hg10 mi
7:30 am5 °FClear.1 mph78%30.45 "Hg10 mi
7:00 am7 °FClear.No wind72%30.45 "Hg10 mi
6:30 am7 °FClear.No wind72%30.45 "Hg10 mi
6:00 am7 °FClear.No wind78%30.45 "Hg10 mi
5:30 am9 °FClear.1 mph72%30.45 "Hg10 mi
5:00 am5 °FClear.1 mph78%30.45 "Hg10 mi
4:30 am9 °FClear.No wind72%30.45 "Hg10 mi
4:00 am7 °FClear.1 mph72%30.45 "Hg10 mi
3:00 am9 °FClear.1 mph72%30.48 "Hg10 mi
2:00 am12 °FClear.1 mph67%30.48 "Hg10 mi
1:00 am9 °FClear.1 mph66%30.48 "Hg10 mi
12:00 am14 °FClear.No wind62%30.51 "Hg10 mi
11:30 pm
Mon, Oct 14
16 °FClear.1 mph62%30.51 "Hg10 mi
11:00 pm14 °FClear.1 mph62%30.51 "Hg10 mi
10:30 pm16 °FClear.1 mph57%30.51 "Hg10 mi
10:00 pm21 °FClear.1 mph49%30.51 "Hg10 mi
9:30 pm25 °FClear.No wind46%30.51 "Hg10 mi
9:00 pm27 °FClear.1 mph39%30.51 "Hg10 mi
8:30 pm23 °FPassing clouds.6 mph46%30.51 "HgN/A
8:00 pm25 °FClear.8 mph42%30.51 "Hg10 mi
7:30 pm27 °FClear.8 mph39%30.48 "Hg10 mi
7:00 pm27 °FSunny.8 mph43%30.48 "Hg10 mi
Weather by CustomWeather, © 2019

See weather overview